Wind_Speed
44 44 44 44 44 44 45 44 44 43 42 41 42 43 43 44 44 44 43 44 44 44 44 45 46 47 48 49 49 50 50 51 51 51 52 52 52 52 53 52 52 52 53 53
44 43 44 44 43 44 44 44 44 44 43 41 43 44 44 45 45 45 44 44 44 45 45 46 47 47 48 49 49 50 50 50 51 51 51 51 52 52 52 52 52 52 52 53
45 45 45 45 42 43 43 43 43 44 41 41 43 44 45 45 45 45 45 45 46 46 46 47 47 48 49 49 49 49 49 50 50 50 50 50 51 52 51 51 51 51 52 52
43 44 46 43 42 42 42 42 42 42 41 41 42 43 43 44 44 44 45 45 45 46 46 47 47 48 48 48 49 49 49 49 49 49 49 50 51 51 51 51 50 50 49 49
41 42 43 42 41 41 41 40 40 40 40 40 41 41 41 41 42 43 44 44 45 46 46 46 47 47 47 47 48 48 48 48 48 48 49 50 50 50 50 49 48 47 46 44
40 41 41 39 41 41 41 41 39 39 39 40 40 40 40 40 41 42 43 43 44 45 45 46 46 46 46 47 47 47 47 47 47 48 49 49 49 48 48 47 45 43 42 41
37 38 38 38 38 39 40 40 39 39 39 39 39 40 40 40 41 41 41 42 43 44 45 45 46 45 45 46 47 46 47 47 47 47 48 48 48 47 45 44 42 41 39 38
35 36 35 36 37 38 38 38 38 38 38 38 39 39 40 40 41 41 41 42 43 43 44 44 45 45 45 46 46 47 47 47 47 48 48 47 46 45 43 41 40 38 37 35
32 32 33 34 35 36 36 36 37 38 38 39 40 40 41 41 41 41 42 42 43 43 43 43 44 45 46 46 46 46 47 47 47 46 45 44 42 40 39 38 37 35 33 31
31 31 32 33 34 35 36 36 36 37 38 38 39 40 40 41 41 42 42 43 43 44 44 44 44 45 45 45 46 46 45 45 44 42 41 40 39 38 37 36 33 31 29 27
33 33 34 34 35 35 35 35 35 35 36 36 37 37 38 39 40 41 41 42 43 43 43 43 44 44 44 44 44 43 43 42 40 39 38 37 36 35 34 32 30 27 25 23
30 31 33 32 33 34 35 35 35 35 35 36 36 36 36 37 38 38 39 40 41 41 41 42 43 43 43 43 43 41 39 38 36 35 33 32 30 29 29 28 27 24 23 21
31 31 31 32 33 33 34 34 34 34 34 34 35 35 36 36 37 37 38 39 39 39 40 41 40 40 40 40 38 36 34 33 31 30 29 27 26 26 25 24 24 22 20 18
30 31 31 32 33 33 33 32 33 33 34 34 35 35 36 36 36 37 37 37 38 38 38 38 37 37 36 35 33 32 30 29 28 27 26 24 24 23 23 21 19 19 16 14
28 28 29 30 31 31 32 32 32 32 33 33 34 34 35 35 36 36 35 36 35 36 36 35 34 33 32 30 28 27 26 26 25 24 23 22 21 20 20 19 17 15 13 13
26 27 27 27 28 28 29 30 31 31 31 31 32 32 33 33 33 32 32 31 31 32 32 31 30 29 28 26 25 24 24 23 22 21 20 19 18 17 17 16 15 13 12 10
25 25 26 26 27 28 28 28 29 29 30 30 31 31 31 30 30 29 28 29 29 28 28 27 27 26 26 25 23 22 21 21 20 19 18 17 16 15 13 13 12 11 10 9
24 24 24 24 25 25 26 26 27 27 27 28 28 28 28 28 28 27 27 27 27 26 26 26 25 25 24 23 22 21 20 20 19 17 16 15 14 13 12 11 10 10 9 8
23 23 23 24 24 25 26 26 26 26 26 27 27 27 27 26 26 26 26 26 26 25 25 25 24 23 22 21 21 20 19 18 18 17 15 13 12 12 11 10 9 8 8 7
22 21 22 22 23 24 24 24 24 24 24 24 24 24 24 24 24 25 25 25 25 24 24 23 22 20 20 20 19 19 18 17 17 16 14 12 12 11 11 10 9 8 7 6
21 22 22 22 22 22 22 22 22 22 22 23 23 23 23 23 23 23 23 24 24 23 23 22 21 19 18 18 17 16 15 15 15 14 12 11 11 10 10 8 7 6 6 5
20 20 21 21 22 22 22 21 21 21 22 22 22 22 22 22 22 22 23 23 22 21 20 20 19 17 16 15 14 14 14 13 12 11 10 9 9 8 7 6 6 5 5 5
18 19 19 20 20 21 21 21 21 21 22 22 22 22 22 21 21 21 21 20 20 19 18 17 16 15 14 13 13 12 12 11 10 10 10 9 8 7 6 6 6 5 5 5
17 18 19 19 19 20 20 20 21 21 21 21 21 20 20 20 20 20 19 18 17 17 16 15 14 13 13 12 11 11 10 10 10 10 10 9 8 7 7 7 7 7 6 6
17 18 18 18 19 19 19 19 19 19 19 18 18 18 18 18 18 17 16 16 15 15 14 14 13 12 12 11 10 10 10 10 9 9 9 9 8 8 8 8 8 8 7 7
17 17 17 17 17 17 17 17 17 17 17 17 17 17 16 16 16 15 15 15 15 14 14 13 12 12 11 11 10 10 9 9 9 9 9 9 9 9 9 9 9 8 7 7
15 16 16 16 16 17 17 17 17 17 17 17 16 16 15 15 15 14 14 14 14 13 13 12 12 11 11 10 10 10 9 9 9 8 9 9 10 10 10 10 10 9 8 8
Wind_Direction
245 246 247 249 250 251 252 254 256 256 257 258 260 262 264 267 268 270 271 273 275 276 278 280 281 283 285 286 288 289 290 291 292 293 294 295 296 297 297 298 297 297 297 297
245 246 247 248 249 251 253 255 257 258 258 260 261 262 264 266 268 270 271 273 275 277 279 281 282 284 286 287 288 289 290 291 292 293 295 296 296 297 297 298 298 299 299 299
247 247 248 249 250 252 254 255 257 259 260 260 261 263 264 265 267 270 272 274 276 278 280 282 284 285 286 287 287 288 290 291 292 293 294 295 296 297 298 298 299 299 300 301
248 247 248 250 250 252 254 255 256 258 259 260 262 264 265 267 268 269 271 273 275 278 280 282 284 285 286 287 288 289 289 290 291 293 294 296 297 297 298 299 300 301 301 302
249 250 251 250 252 253 254 255 256 258 259 260 261 263 266 268 269 270 272 274 276 278 280 281 283 286 287 287 289 289 289 290 291 293 294 295 296 297 298 300 301 302 301 302
250 252 254 253 253 253 255 257 257 259 260 261 262 263 265 268 270 272 274 275 277 278 280 282 284 286 287 288 289 289 289 290 291 293 295 296 296 297 298 299 301 302 301 302
252 255 256 256 256 256 258 259 259 260 261 262 264 265 266 267 270 272 274 276 278 279 281 282 284 286 287 288 289 289 290 290 291 293 295 297 297 297 298 299 300 301 301 302
252 254 256 256 257 257 259 259 261 262 263 264 265 267 268 269 271 273 275 277 279 280 282 283 284 286 288 288 289 289 289 290 292 294 296 297 297 298 298 299 300 300 300 301
251 254 255 255 256 257 258 260 262 264 266 267 269 270 271 271 272 274 276 279 280 281 282 284 285 286 288 289 289 289 290 291 292 294 295 296 297 298 299 299 299 300 300 301
251 252 253 253 254 256 258 261 263 265 266 268 270 270 272 273 274 276 278 280 282 282 282 284 286 287 288 289 288 289 290 291 292 293 294 295 296 298 299 300 300 299 300 300
253 253 254 254 255 256 258 261 264 266 267 268 270 270 272 274 275 276 278 280 282 282 282 283 285 287 288 289 289 290 291 291 291 293 294 294 294 296 298 300 300 300 300 299
253 254 255 256 256 258 259 261 264 266 268 268 270 271 272 274 276 277 278 280 281 282 282 284 286 287 288 289 290 290 290 290 292 293 293 293 294 295 297 300 300 300 300 299
254 254 256 257 257 258 260 262 264 266 267 269 270 272 274 275 277 278 279 280 281 282 284 286 286 287 288 289 290 289 288 289 292 292 292 292 293 294 296 297 298 298 300 298
257 257 258 258 259 260 261 262 263 264 267 269 271 273 275 277 279 280 280 279 280 282 284 285 285 287 288 289 289 288 287 289 290 291 291 290 291 293 295 295 295 293 294 294
259 260 260 260 260 260 261 262 264 266 268 270 272 274 276 278 279 281 280 280 280 281 282 283 285 287 288 288 287 286 286 288 289 289 290 289 289 292 296 294 291 286 285 288
260 261 261 260 261 262 263 265 266 268 269 271 273 275 277 279 280 281 280 280 280 280 280 282 284 285 286 286 286 285 287 288 288 289 290 289 289 292 293 291 286 280 280 278
259 261 262 263 264 265 267 267 267 268 269 272 274 276 277 278 280 280 280 281 281 281 281 283 284 285 284 284 284 284 286 288 289 289 289 288 289 291 291 288 283 277 274 271
259 261 263 264 264 264 266 267 268 269 270 271 273 276 278 279 278 279 280 281 281 282 284 286 286 286 284 282 281 283 285 286 287 287 288 288 288 288 288 287 282 272 267 263
259 261 262 263 263 264 266 267 269 269 270 272 274 276 277 276 276 277 279 280 280 281 284 286 286 285 282 281 281 282 282 282 283 284 285 284 281 283 284 285 280 270 263 257
258 260 261 263 264 265 266 267 268 270 271 272 274 276 276 275 276 277 279 280 281 283 285 285 285 283 281 280 280 279 279 280 280 279 278 277 276 276 278 278 273 265 256 249
258 260 262 264 265 266 267 268 269 271 273 274 276 277 277 277 277 278 279 281 283 284 284 284 284 283 279 279 279 276 276 276 275 272 270 270 272 273 274 270 262 255 245 233
261 262 264 266 267 268 269 270 272 273 275 276 278 278 277 277 277 279 280 282 283 283 283 282 281 279 276 276 276 273 273 272 268 263 260 261 263 265 263 253 241 232 221 213
262 264 266 268 269 270 271 273 274 275 276 277 278 277 276 277 278 279 280 281 281 280 280 278 276 274 273 273 272 268 267 261 255 250 249 251 253 250 243 231 217 205 199 201
266 268 268 269 271 272 272 272 273 274 275 277 276 275 274 275 277 278 278 279 279 277 275 273 272 270 269 269 266 261 255 249 244 241 241 242 240 236 229 220 209 201 201 205
269 269 270 271 272 271 270 271 271 272 273 274 274 274 274 274 275 275 275 275 277 275 271 268 267 266 264 262 259 252 244 240 239 238 237 234 229 222 216 211 203 200 201 199
269 270 270 271 270 270 270 270 271 273 274 276 276 276 276 275 274 273 273 273 273 272 268 264 263 262 259 255 249 243 237 235 232 232 229 223 217 212 206 201 195 193 193 189
269 271 272 271 270 271 271 271 272 274 275 275 275 274 274 274 274 272 272 271 270 269 264 259 258 255 252 246 237 231 226 223 220 219 217 213 209 206 201 197 193 192 193 188
Height
5559 5562 5566 5569 5573 5575 5578 5580 5583 5588 5590 5594 5593 5593 5593 5594 5594 5595 5595 5595 5595 5595 5594 5592 5590 5588 5585 5581 5578 5573 5569 5565 5560 5555 5550 5545 5540 5534 5528 5522 5516 5510 5504 5499
5548 5552 5554 5558 5562 5565 5568 5570 5573 5576 5580 5583 5582 5582 5582 5583 5583 5584 5584 5584 5583 5583 5582 5580 5578 5575 5572 5569 5565 5561 5557 5553 5548 5543 5538 5533 5527 5522 5516 5510 5504 5497 5491 5485
5538 5541 5542 5547 5554 5556 5558 5561 5563 5565 5570 5570 5570 5571 5571 5572 5572 5573 5573 5572 5571 5571 5569 5568 5566 5563 5560 5556 5553 5549 5545 5540 5536 5531 5526 5521 5515 5510 5504 5498 5492 5486 5480 5473
5527 5530 5532 5542 5543 5545 5547 5550 5552 5554 5557 5558 5559 5559 5560 5561 5561 5561 5561 5561 5560 5558 5557 5555 5553 5550 5547 5544 5540 5536 5532 5528 5524 5519 5515 5509 5504 5498 5492 5486 5480 5474 5468 5462
5517 5518 5522 5530 5533 5535 5536 5539 5541 5543 5546 5547 5547 5548 5550 5550 5549 5550 5549 5549 5548 5546 5545 5543 5540 5538 5535 5532 5528 5524 5520 5516 5512 5508 5503 5498 5493 5487 5481 5476 5470 5464 5458 5452
5507 5509 5514 5521 5522 5523 5526 5529 5532 5532 5534 5536 5537 5539 5541 5539 5538 5538 5538 5537 5536 5534 5533 5530 5528 5526 5523 5520 5516 5512 5509 5505 5501 5496 5491 5486 5481 5476 5471 5465 5460 5454 5449 5443
5498 5500 5504 5510 5511 5513 5517 5519 5521 5522 5524 5525 5527 5528 5528 5528 5527 5527 5526 5525 5524 5522 5521 5519 5516 5514 5511 5508 5505 5501 5497 5494 5489 5484 5479 5474 5470 5465 5460 5455 5450 5445 5440 5435
5490 5492 5499 5499 5501 5504 5505 5507 5509 5511 5513 5515 5516 5516 5517 5517 5516 5516 5515 5514 5513 5511 5509 5507 5505 5502 5500 5497 5493 5490 5487 5483 5478 5473 5468 5464 5459 5455 5450 5445 5441 5436 5432 5428
5482 5486 5488 5489 5491 5492 5495 5497 5499 5501 5503 5504 5505 5506 5506 5506 5506 5505 5504 5503 5502 5500 5498 5496 5493 5491 5489 5486 5482 5479 5475 5471 5467 5463 5458 5453 5449 5445 5440 5436 5432 5428 5424 5420
5473 5476 5478 5479 5481 5483 5485 5487 5489 5490 5492 5493 5494 5495 5495 5495 5494 5494 5493 5492 5490 5489 5487 5486 5483 5480 5477 5474 5471 5468 5464 5460 5456 5452 5448 5444 5440 5436 5432 5427 5423 5420 5416 5413
5464 5467 5468 5471 5472 5474 5476 5477 5479 5480 5481 5482 5483 5484 5484 5484 5483 5482 5481 5480 5479 5477 5476 5474 5472 5469 5466 5463 5459 5456 5453 5449 5445 5442 5438 5435 5431 5427 5423 5420 5415 5413 5410 5407
5456 5458 5460 5462 5463 5465 5467 5468 5470 5471 5472 5472 5472 5473 5473 5473 5472 5471 5470 5469 5468 5466 5465 5463 5460 5458 5455 5452 5449 5446 5442 5439 5436 5432 5429 5426 5423 5420 5416 5413 5410 5407 5404 5402
5447 5449 5451 5453 5454 5456 5457 5459 5460 5461 5462 5462 5462 5462 5462 5462 5462 5461 5459 5458 5457 5456 5454 5452 5450 5447 5444 5441 5438 5435 5432 5430 5427 5424 5421 5419 5416 5414 5412 5409 5405 5402 5400 5398
5439 5441 5443 5444 5445 5446 5448 5449 5450 5451 5452 5452 5453 5453 5453 5452 5451 5450 5449 5448 5447 5445 5443 5442 5439 5437 5434 5431 5429 5426 5424 5422 5419 5417 5414 5412 5410 5408 5405 5403 5401 5398 5396 5395
5431 5432 5434 5435 5436 5437 5438 5440 5441 5442 5442 5443 5443 5443 5442 5442 5441 5440 5439 5438 5437 5435 5434 5432 5430 5428 5425 5423 5421 5419 5416 5414 5412 5410 5408 5406 5404 5402 5400 5398 5396 5395 5394 5392
5423 5424 5426 5427 5428 5429 5430 5431 5431 5432 5433 5433 5433 5433 5433 5432 5431 5430 5429 5428 5427 5426 5424 5423 5421 5419 5417 5415 5413 5412 5410 5408 5406 5405 5403 5401 5399 5398 5396 5394 5392 5391 5390 5389
5416 5417 5418 5419 5420 5421 5421 5422 5422 5423 5423 5424 5424 5424 5423 5423 5422 5421 5421 5420 5418 5417 5416 5414 5413 5411 5410 5408 5407 5405 5404 5402 5401 5399 5398 5397 5395 5394 5392 5390 5389 5388 5387 5387
5409 5410 5411 5412 5412 5413 5413 5414 5414 5414 5415 5415 5415 5415 5415 5414 5414 5413 5412 5412 5410 5409 5408 5407 5406 5404 5403 5401 5400 5399 5398 5397 5396 5395 5393 5392 5391 5390 5389 5388 5387 5386 5385 5384
5403 5404 5404 5405 5405 5406 5406 5406 5406 5407 5407 5407 5407 5407 5406 5406 5405 5405 5405 5404 5403 5402 5401 5400 5398 5397 5396 5395 5394 5393 5392 5391 5390 5390 5389 5388 5387 5387 5386 5385 5384 5383 5383 5383
5396 5397 5398 5398 5398 5398 5399 5399 5399 5399 5399 5399 5399 5399 5399 5398 5398 5398 5397 5396 5396 5395 5394 5392 5391 5390 5389 5388 5388 5387 5386 5386 5385 5385 5385 5384 5384 5383 5383 5382 5382 5382 5381 5381
5390 5391 5391 5392 5392 5392 5392 5392 5392 5392 5392 5392 5392 5392 5392 5391 5391 5390 5390 5389 5389 5388 5387 5386 5385 5384 5383 5382 5382 5381 5381 5381 5381 5381 5381 5381 5381 5380 5380 5380 5380 5380 5380 5380
5384 5385 5385 5386 5386 5386 5386 5386 5386 5386 5386 5385 5385 5385 5385 5384 5384 5383 5383 5382 5382 5381 5380 5379 5379 5378 5378 5377 5377 5377 5377 5376 5376 5377 5377 5377 5378 5378 5377 5378 5378 5379 5379 5380
5379 5379 5379 5380 5380 5380 5379 5379 5379 5379 5379 5378 5378 5378 5377 5377 5377 5376 5376 5375 5375 5374 5374 5374 5373 5373 5373 5373 5373 5373 5372 5373 5373 5373 5374 5374 5375 5375 5376 5376 5377 5378 5379 5380
5373 5373 5374 5373 5373 5373 5373 5373 5372 5372 5372 5371 5371 5371 5370 5370 5370 5369 5369 5369 5368 5368 5368 5368 5368 5368 5368 5368 5368 5369 5369 5369 5370 5370 5371 5372 5372 5373 5374 5375 5376 5377 5378 5380
5367 5367 5367 5367 5367 5367 5367 5366 5366 5366 5365 5365 5365 5364 5364 5364 5364 5363 5363 5363 5362 5362 5362 5363 5363 5363 5363 5364 5364 5365 5366 5366 5367 5368 5368 5369 5370 5371 5372 5374 5375 5377 5378 5379
5362 5362 5362 5361 5361 5361 5361 5360 5360 5360 5360 5359 5359 5358 5358 5358 5357 5357 5357 5357 5357 5357 5357 5357 5358 5358 5359 5360 5361 5361 5363 5364 5364 5365 5366 5367 5368 5370 5371 5373 5374 5376 5377 5379
5356 5356 5356 5356 5355 5355 5355 5355 5354 5354 5354 5353 5353 5353 5352 5352 5352 5352 5352 5352 5352 5352 5352 5353 5353 5354 5355 5356 5357 5358 5360 5361 5362 5363 5364 5365 5367 5368 5370 5372 5374 5375 5377 5379